Date String (YYYY-MM-DD hh:mm:ss) UTC,Instrument flags,absolute air pressure of the measurement (hPa),sample flow rate (lpm),inlet stack bypass flow (lpm),air temperature of the measurement (°C),ambient temperature measured by the external sensor (°C),aerosol sample conditioner tube jacket temperature (°C),OPC LED temperature (°C),internal box temperature (°C),relative humidity of the measurement (%),span deviation,mass concentration of particles derived from Lorenz-Mie calculation of OPC scattering (μg/m³),mass concentration of particles derived from Lorenz-Mie calculation of OPC scattering (μg/m³),mass concentration of particles derived from Lorenz-Mie calculation of OPC scattering (μg/m³)
DateTimeUTC,F1_M11,P_M11,Q1_M11,Q2_M11,T1_M11,T2_M11,T3_M11,T4_M11,T5_M11,U1_M11,ZSPAN_M11,X0_M11,X2_M11,X1_M11
2023-12-14 08:00:00,SystemResetWarning,0834.8,5.00,000.00,018.8,017.9,000.0,027.1,020.0,23.2,-000.1,0025.00,0019.66,0018.99
2023-12-14 08:01:00,SystemResetWarning,0834.7,4.99,000.00,018.8,017.9,000.0,027.1,020.0,23.2,-000.0,0025.12,0019.70,0019.01
2023-12-14 08:02:00,SystemResetWarning,0834.7,5.00,000.00,018.8,017.9,000.0,027.1,020.0,23.1,0000.1,0025.06,0019.70,0018.99
2023-12-14 08:03:00,SystemResetWarning,0834.8,5.00,000.00,018.8,017.9,000.0,027.1,020.0,23.1,0000.0,0024.65,0019.70,0018.97
2023-12-14 08:04:00,SystemResetWarning,0834.7,5.00,000.00,018.8,017.9,000.0,027.1,020.0,23.1,0000.0,0024.55,0019.66,0018.93
2023-12-14 08:05:00,SystemResetWarning,0834.7,5.00,000.00,018.8,017.9,000.0,027.1,020.0,23.0,0000.0,0024.39,0019.67,0018.93
2023-12-14 08:06:00,SystemResetWarning,0834.7,5.00,000.00,018.8,017.9,000.0,027.1,020.0,23.0,-000.0,0024.65,0019.62,0018.86
2023-12-14 08:07:00,SystemResetWarning,0835.0,5.00,000.00,018.8,017.9,000.0,027.1,020.0,22.9,-000.1,0024.82,0019.54,0018.78
2023-12-14 08:08:00,SystemResetWarning,0835.4,5.00,000.00,018.8,017.9,000.0,027.1,020.0,22.9,-000.3,0024.67,0019.48,0018.72
2023-12-14 08:09:00,SystemResetWarning,0834.9,5.00,000.00,018.8,017.9,000.0,027.1,020.0,22.9,-000.1,0024.46,0019.42,0018.66
2023-12-14 08:10:00,SystemResetWarning,0834.9,5.00,000.00,018.8,017.9,000.0,027.1,020.0,22.9,-000.1,0024.16,0019.35,0018.58
2023-12-14 08:11:00,SystemResetWarning,0835.0,5.00,000.00,018.8,017.9,000.0,027.1,020.0,22.9,-000.0,0024.41,0019.29,0018.47
2023-12-14 08:12:00,SystemResetWarning,0835.0,5.00,000.00,018.8,017.9,000.0,027.1,020.0,22.9,0000.0,0025.20,0019.21,0018.38
2023-12-14 08:13:00,SystemResetWarning,0835.0,5.00,000.00,018.8,017.9,000.0,027.1,020.0,22.9,0000.0,0025.58,0019.14,0018.31
2023-12-14 08:14:00,SystemResetWarning,0834.9,5.00,000.00,018.8,017.9,000.0,027.1,020.0,22.9,0000.1,0025.74,0019.05,0018.18
2023-12-14 08:15:00,SystemResetWarning,0835.1,5.00,000.00,018.8,017.9,000.0,027.1,020.0,22.9,0000.0,0025.83,0018.96,0018.07
2023-12-14 08:16:00,SystemResetWarning,0835.0,5.00,000.00,018.8,017.9,000.0,027.1,020.0,22.8,0000.1,0025.78,0018.88,0017.96
2023-12-14 08:17:00,SystemResetWarning,0834.9,5.00,000.00,018.8,017.9,000.0,027.1,020.0,22.8,0000.2,0025.26,0018.79,0017.90
2023-12-14 08:18:00,SystemResetWarning,0834.9,5.00,000.00,018.8,017.9,000.0,027.1,020.0,22.8,0000.1,0024.88,0018.77,0017.89
2023-12-14 08:19:00,SystemResetWarning,0834.7,5.00,000.00,018.8,017.9,000.0,027.1,020.0,22.8,0000.3,0025.08,0018.76,0017.85
2023-12-14 08:20:00,SystemResetWarning,0834.9,5.00,000.00,018.8,017.9,000.0,027.1,020.0,22.8,0000.3,0025.36,0018.69,0017.79
2023-12-14 08:21:00,SystemResetWarning,0835.0,5.00,000.00,018.8,017.9,000.0,027.1,020.0,22.8,0000.4,0025.66,0018.64,0017.77
2023-12-14 08:22:00,SystemResetWarning,0834.9,5.00,000.00,018.8,017.9,000.0,027.1,020.0,22.8,0000.1,0025.43,0018.64,0017.79
2023-12-14 08:23:00,SystemResetWarning,0834.8,5.00,000.00,018.8,017.9,000.0,027.1,020.0,22.8,-000.0,0024.67,0018.69,0017.83
2023-12-14 08:24:00,SystemResetWarning,0835.1,5.00,000.00,018.8,017.9,000.0,027.1,020.0,22.8,0000.1,0024.25,0018.74,0017.87
2023-12-14 08:25:00,SystemResetWarning,0835.2,5.00,000.00,018.8,017.9,000.0,027.1,020.0,22.8,0000.3,0024.00,0018.73,0017.92
2023-12-14 08:26:00,SystemResetWarning,0835.0,5.01,000.00,018.8,017.9,000.0,027.1,020.0,22.8,0000.3,0024.04,0018.78,0017.99
2023-12-14 08:27:00,SystemResetWarning,0835.0,5.00,000.00,018.8,017.8,000.0,027.1,020.0,22.8,0000.1,0024.22,0018.82,0018.03
2023-12-14 08:28:00,SystemResetWarning,0834.8,5.01,000.00,018.8,017.8,000.0,027.1,020.0,22.9,0000.2,0024.64,0018.88,0018.07
2023-12-14 08:29:00,SystemResetWarning,0835.2,5.00,000.00,018.8,017.9,000.0,027.1,020.0,22.9,0000.2,0025.16,0018.93,0018.11
2023-12-14 08:30:00,SystemResetWarning,0835.0,5.00,000.00,018.8,017.8,000.0,027.1,020.0,22.9,0000.3,0024.86,0018.98,0018.18
2023-12-14 08:31:00,SystemResetWarning,0835.0,4.99,000.00,018.8,017.9,000.0,027.1,020.0,22.9,0000.2,0024.77,0019.06,0018.26
2023-12-14 08:32:00,SystemResetWarning,0835.0,5.00,000.00,018.8,017.9,000.0,027.1,020.0,22.9,0000.1,0024.62,0019.10,0018.29
2023-12-14 08:33:00,SystemResetWarning,0835.0,5.00,000.00,018.8,017.8,000.0,027.1,020.0,23.0,0000.4,0024.75,0019.12,0018.31
2023-12-14 08:34:00,SystemResetWarning,0835.0,5.00,000.00,018.8,017.8,000.0,027.1,020.0,23.0,0000.5,0024.75,0019.11,0018.31
2023-12-14 08:35:00,SystemResetWarning,0835.0,5.00,000.00,018.8,017.8,000.0,027.1,020.0,23.0,0000.5,0025.18,0019.06,0018.31
2023-12-14 08:36:00,SystemResetWarning,0835.0,5.01,000.00,018.8,017.8,000.0,027.1,020.0,23.0,0000.5,0025.47,0019.06,0018.32
2023-12-14 08:37:00,SystemResetWarning,0835.0,5.01,000.00,018.8,017.8,000.0,027.1,020.0,23.0,0000.5,0025.33,0019.09,0018.33
2023-12-14 08:38:00,SystemResetWarning,0835.0,5.00,000.00,018.8,017.8,000.0,027.1,020.0,23.1,0000.7,0025.23,0019.08,0018.35
2023-12-14 08:39:00,SystemResetWarning,0835.1,5.00,000.00,018.8,017.8,000.0,027.1,020.0,23.1,0000.8,0025.06,0019.15,0018.42
2023-12-14 08:40:00,SystemResetWarning,0835.2,4.99,000.00,018.8,017.8,000.0,027.1,020.0,23.1,0000.7,0024.63,0019.19,0018.47
2023-12-14 08:41:00,SystemResetWarning,0835.2,5.00,000.00,018.8,017.8,000.0,027.1,020.0,23.1,0000.5,0024.60,0019.20,0018.50
2023-12-14 08:42:00,SystemResetWarning,0835.2,5.00,000.00,018.8,017.8,000.0,027.1,020.0,23.1,0000.5,0024.67,0019.21,0018.51
2023-12-14 08:43:00,SystemResetWarning,0835.2,5.00,000.00,018.8,017.8,000.0,027.1,020.0,23.1,0000.4,0025.07,0019.28,0018.58
2023-12-14 08:44:00,SystemResetWarning,0835.1,5.01,000.00,018.8,017.8,000.0,027.1,020.0,23.1,0000.3,0025.15,0019.35,0018.66
2023-12-14 08:45:00,SystemResetWarning,0835.0,5.02,000.00,018.8,017.8,000.0,027.1,020.0,23.2,0000.3,0025.50,0019.44,0018.72
2023-12-14 08:46:00,SystemResetWarning,0835.0,4.99,000.00,018.8,017.8,000.0,027.1,020.0,23.2,0000.3,0025.19,0019.54,0018.76
2023-12-14 08:47:00,SystemResetWarning,0835.0,5.00,000.00,018.8,017.8,000.0,027.1,020.0,23.2,0000.3,0025.17,0019.66,0018.81
2023-12-14 08:48:00,SystemResetWarning,0835.0,5.00,000.00,018.8,017.8,000.0,027.1,020.0,23.2,0000.4,0025.38,0019.74,0018.86
2023-12-14 08:49:00,SystemResetWarning,0835.0,4.99,000.00,018.8,017.8,000.0,027.1,020.0,23.2,0000.3,0025.86,0019.80,0018.91
2023-12-14 08:50:00,SystemResetWarning,0835.0,5.00,000.00,018.8,017.8,000.0,027.1,020.0,23.2,0000.1,0025.96,0019.75,0018.91
2023-12-14 08:51:00,SystemResetWarning,0835.0,5.00,000.00,018.8,017.8,000.0,027.1,020.0,23.2,0000.1,0025.90,0019.72,0018.93
2023-12-14 08:52:00,SystemResetWarning,0835.0,5.00,000.00,018.8,017.8,000.0,027.1,020.0,23.2,0000.3,0025.89,0019.72,0018.94
2023-12-14 08:53:00,SystemResetWarning,0834.9,5.00,000.00,018.8,017.8,000.0,027.1,020.0,23.3,0000.3,0025.94,0019.76,0018.96
2023-12-14 08:54:00,SystemResetWarning,0835.0,5.00,000.00,018.8,017.8,000.0,027.1,020.0,23.3,0000.3,0025.97,0019.81,0018.97
2023-12-14 08:55:00,SystemResetWarning,0835.0,5.00,000.00,018.8,017.8,000.0,027.1,020.0,23.3,0000.2,0025.79,0019.83,0018.96
2023-12-14 08:56:00,SystemResetWarning,0835.0,5.00,000.00,018.8,017.8,000.0,027.1,020.0,23.3,0000.1,0025.56,0019.79,0018.95
2023-12-14 08:57:00,SystemResetWarning,0835.0,5.00,000.00,018.8,017.8,000.0,027.1,020.0,23.3,0000.2,0025.52,0019.77,0018.94
2023-12-14 08:58:00,SystemResetWarning,0835.0,5.00,000.00,018.8,017.8,000.0,027.1,020.0,23.3,0000.1,0025.28,0019.69,0018.93
2023-12-14 08:59:00,SystemResetWarning,0835.0,5.00,000.00,018.8,017.8,000.0,027.1,020.0,23.3,-000.1,0025.39,0019.67,0018.91
